Theta_e
319 320 320 320 320 319 319 319 319 317 316 312 307 310 301 299 295 301 304 307 307 300 292 294 293 291 294 294 292 288 286 284 285 289 288 287 288 286 287 288 286 285 286 284 284 286 284 284 284 281 282 286 289 285 290 288 289 290 286 286 284 291 282 280 284 280 277 279 278 278 278 282 282 282 279 280 280 281 282 282 275 273 269 272 269 272 279
314 316 319 319 320 319 318 318 319 317 315 313 311 305 300 300 298 296 304 307 306 296 286 287 289 292 295 294 293 291 289 286 285 286 287 289 286 288 288 287 289 286 286 284 285 285 282 285 285 285 284 283 285 288 289 291 288 290 287 288 289 282 283 282 276 274 276 276 278 278 279 279 279 280 282 282 283 281 277 275 273 273 279 273 275 272 279
313 313 314 316 319 319 318 317 317 317 316 315 310 302 303 301 301 299 300 304 303 292 293 289 288 290 291 291 290 291 289 290 291 289 287 289 286 286 285 288 286 287 286 285 286 285 288 284 285 287 285 286 284 284 288 291 289 289 288 293 292 285 281 282 275 275 273 273 273 275 273 278 278 276 277 281 281 281 276 277 277 275 279 276 277 278 285
313 313 313 313 315 317 317 316 316 316 316 315 311 305 301 296 290 296 295 298 298 298 298 292 289 288 289 288 290 291 288 290 289 292 290 290 286 288 285 285 287 287 285 284 285 285 285 286 283 282 282 282 283 280 283 287 290 291 292 290 291 280 280 284 284 281 279 281 281 279 279 277 276 278 279 281 281 282 282 280 275 276 278 276 281 282 283
313 313 313 313 313 314 316 317 316 315 315 314 311 306 302 299 294 292 286 295 294 293 296 293 292 286 291 286 289 288 289 289 287 291 287 290 289 288 289 287 285 284 286 285 285 287 286 286 286 285 282 279 282 279 279 283 285 290 289 290 284 275 280 283 284 285 285 285 285 280 282 279 280 280 279 281 281 280 279 278 277 282 276 276 282 283 281
311 312 312 312 312 313 313 315 316 315 314 313 311 300 302 293 297 299 297 292 286 289 289 294 292 291 291 288 290 286 287 287 286 288 290 287 290 288 285 288 289 288 287 287 284 286 286 286 285 288 282 282 282 284 283 283 287 287 284 286 286 283 283 286 284 283 285 286 286 281 280 282 283 281 282 281 280 279 278 278 282 282 279 278 283 285 282
310 310 311 311 312 312 312 312 313 315 314 314 309 300 302 301 296 298 301 293 294 292 293 295 293 292 291 289 290 287 287 286 289 286 285 287 285 290 285 286 288 289 289 288 285 286 282 283 287 286 287 286 285 283 285 284 282 286 283 284 281 281 284 286 285 283 284 284 284 282 280 282 283 283 282 283 280 280 280 281 283 282 281 283 284 284 284
308 308 309 310 310 311 312 311 311 313 314 313 306 304 300 297 296 293 299 297 296 295 294 293 293 290 292 287 288 289 288 287 287 286 288 284 286 290 287 288 288 288 289 289 286 288 288 287 284 286 287 287 286 286 288 284 280 283 284 283 281 284 282 289 284 282 283 285 285 283 283 283 282 284 284 284 283 280 282 282 282 282 281 283 283 282 283
307 307 308 308 309 309 310 310 311 310 313 307 305 304 306 304 304 301 296 292 294 295 294 292 291 289 291 288 289 290 289 288 290 288 291 289 287 287 287 289 287 286 288 289 289 291 290 290 289 287 288 286 289 287 286 289 279 280 280 280 278 284 278 279 278 282 282 285 284 281 283 283 282 282 284 284 284 282 283 281 283 281 280 281 281 279 281
304 306 306 307 307 308 308 308 309 309 310 307 306 302 308 307 302 304 300 292 295 293 294 293 291 286 290 291 290 291 290 292 291 286 291 291 292 291 290 290 289 287 287 287 290 292 292 292 293 293 292 293 290 292 288 289 285 281 282 281 279 282 281 282 281 280 280 285 279 279 279 280 278 280 283 285 285 286 286 286 286 285 285 281 280 281 287
302 303 305 306 306 306 307 307 307 307 307 302 304 304 306 304 302 301 300 293 293 294 293 292 290 290 293 293 292 293 292 293 293 287 287 292 291 294 292 290 288 287 288 291 294 293 294 294 293 293 293 290 290 290 289 288 289 285 282 277 276 278 282 282 284 279 280 281 278 279 278 274 276 287 288 288 285 285 283 284 286 287 287 285 288 288 290
301 302 302 304 305 305 306 306 306 306 305 304 303 299 303 305 303 303 297 291 290 295 292 289 291 291 293 293 294 292 292 292 292 294 290 292 291 293 291 290 290 285 294 295 292 291 292 291 291 290 289 289 289 289 288 288 288 287 286 284 279 281 282 282 284 280 280 278 278 275 272 275 286 288 287 287 287 287 286 286 287 287 288 288 288 288 289
299 300 301 302 303 304 304 304 305 305 306 304 302 296 302 305 300 297 297 294 289 291 289 290 294 293 294 294 293 293 294 294 295 295 294 293 291 289 291 290 289 292 294 294 295 293 289 287 288 289 288 288 287 287 286 287 288 286 284 288 285 282 282 281 280 281 276 274 277 273 274 285 287 288 288 284 285 283 284 283 286 287 288 288 287 288 289
299 299 299 300 301 302 302 302 302 303 304 304 301 300 301 301 296 296 295 291 289 294 293 292 292 292 292 293 293 293 294 293 294 295 292 294 293 292 292 293 294 294 294 296 291 290 286 286 284 285 284 286 285 285 287 289 288 286 284 285 288 287 284 283 280 285 277 278 278 278 284 283 285 285 288 284 283 279 282 281 284 289 289 288 287 288 289
298 299 299 299 299 300 300 300 300 300 301 301 301 300 300 300 299 296 298 295 286 289 293 287 290 292 293 293 293 292 292 292 291 291 293 296 292 295 296 294 292 295 296 293 288 288 287 285 282 281 282 282 277 280 286 284 288 290 288 287 286 287 285 285 281 280 284 279 277 278 278 275 280 288 285 286 287 287 286 284 283 290 291 289 288 288 289
299 298 298 298 298 299 299 299 299 299 299 300 299 298 299 301 301 299 296 293 288 283 287 293 295 294 292 293 294 292 291 291 291 291 290 290 291 293 292 290 290 295 294 291 288 287 285 283 280 281 278 280 284 281 279 282 280 282 283 287 287 286 287 286 283 280 282 280 277 276 275 278 286 287 283 282 284 285 284 281 280 288 289 287 289 288 288
298 299 299 298 298 298 298 299 299 299 299 299 296 296 295 300 299 296 292 289 289 283 292 293 294 294 293 290 292 291 293 291 291 288 286 288 289 291 290 287 289 292 292 290 286 286 283 283 284 283 283 285 281 281 282 279 278 278 280 281 283 282 282 282 280 279 281 280 278 276 281 280 286 284 279 281 284 287 284 275 278 289 288 289 288 288 288
297 298 298 298 298 297 297 297 298 298 298 299 297 294 293 298 298 297 293 289 285 285 291 292 291 288 287 290 289 292 293 291 291 291 290 290 289 287 289 287 287 288 291 288 286 285 283 283 281 281 280 286 285 285 280 284 280 277 277 277 277 279 279 281 277 279 280 281 279 282 282 287 290 285 281 283 284 285 279 276 285 287 284 286 288 287 288
297 297 297 297 297 298 298 298 298 297 297 298 296 295 293 297 298 298 294 289 286 282 293 296 296 293 295 297 294 295 294 294 293 288 286 287 289 290 287 286 290 287 289 286 287 284 283 283 287 284 282 283 286 279 285 283 282 282 279 277 276 278 279 279 281 278 278 280 278 279 283 288 287 282 284 284 285 277 279 289 288 289 288 283 286 287 286
297 297 297 297 297 297 297 297 297 297 297 298 294 289 291 295 296 296 291 285 287 285 288 289 291 289 294 292 288 289 290 292 293 290 287 286 288 288 287 285 288 287 287 288 283 286 284 281 285 285 283 284 285 287 284 285 288 279 281 285 282 279 278 274 278 280 280 280 278 277 274 286 290 282 282 283 283 285 292 294 287 287 288 285 284 286 286
297 296 297 297 297 297 297 297 297 297 297 297 296 289 288 291 295 297 297 292 286 283 284 293 293 292 293 292 294 294 291 288 291 290 292 292 291 290 284 284 288 287 283 287 281 284 286 283 286 285 287 287 285 288 282 284 285 287 287 285 285 286 280 277 281 284 277 277 275 276 284 289 285 287 283 284 289 294 294 292 292 292 287 286 286 284 285
297 297 297 296 296 296 297 297 297 297 297 297 296 292 286 290 293 296 296 295 287 283 285 290 291 290 292 294 294 295 294 295 295 297 292 288 291 292 291 291 287 289 288 290 285 285 287 286 288 284 282 286 287 285 286 284 280 286 288 287 281 287 286 286 282 286 284 281 284 288 290 289 287 291 292 292 291 293 294 293 292 292 288 286 288 288 286
296 296 297 296 297 297 297 296 296 296 297 298 295 290 287 288 288 294 293 287 289 289 289 288 289 290 292 293 295 296 296 297 295 294 294 289 286 290 290 290 289 292 289 291 289 289 289 289 285 288 286 287 286 284 286 286 284 286 282 288 289 291 292 292 289 286 290 291 290 289 286 284 286 290 293 293 293 291 290 290 289 289 291 287 287 288 286
296 296 296 296 297 297 295 295 296 296 297 297 295 289 288 289 290 291 288 288 283 280 284 286 284 280 283 285 291 295 296 295 296 296 297 295 286 286 290 291 293 292 288 291 295 290 288 290 287 289 285 287 289 284 283 282 285 288 287 284 287 290 290 289 286 288 286 282 290 289 289 285 285 287 290 291 291 291 290 289 289 290 291 288 286 286 285
296 295 296 296 296 296 296 296 296 295 296 296 295 294 293 289 289 289 282 279 280 280 274 278 282 286 290 291 292 291 295 297 298 297 296 297 294 289 287 292 297 293 291 294 292 291 288 286 286 287 283 289 291 284 289 286 285 290 285 286 287 285 291 287 287 287 286 286 291 291 292 292 289 287 287 288 289 289 287 287 289 289 289 287 286 284 284
296 297 296 296 295 295 296 296 296 296 296 296 295 290 288 287 288 290 288 285 284 281 275 273 277 285 286 286 285 288 292 293 293 295 297 297 297 296 295 295 295 297 295 294 293 290 287 287 287 287 285 286 295 287 286 289 288 291 289 287 292 288 290 283 287 286 287 290 291 291 288 286 287 290 290 291 291 291 289 288 287 287 287 285 284 284 285
296 296 295 296 296 296 296 296 295 295 296 296 293 290 289 288 290 287 284 283 279 273 277 273 278 281 281 281 286 287 287 287 287 288 288 290 291 293 295 294 293 293 293 291 293 291 289 287 286 285 287 286 291 289 289 288 288 287 287 288 288 286 285 288 287 284 284 285 288 290 285 286 290 290 291 292 292 291 290 289 287 287 286 285 284 283 283
296 297 296 295 295 296 296 295 295 295 295 295 293 290 289 287 288 290 290 287 280 273 274 274 274 277 283 280 284 286 286 286 286 286 286 287 289 289 289 290 292 290 290 289 286 287 287 285 284 288 289 286 287 286 291 290 290 287 287 288 290 289 289 289 286 285 285 290 292 293 292 292 293 294 295 294 293 292 289 288 288 288 288 287 285 283 281
295 296 296 295 295 295 295 295 295 295 295 295 288 286 285 287 288 290 290 291 287 280 278 279 281 280 273 276 284 280 283 285 285 286 286 287 287 287 287 288 287 288 290 290 289 288 287 287 290 288 286 289 289 286 288 285 283 284 287 291 292 293 295 293 292 292 293 294 294 294 293 290 293 295 295 295 293 291 290 290 290 290 288 286 285 285 283
295 295 295 295 295 295 295 295 296 296 295 289 285 284 279 282 286 287 290 290 288 284 277 275 273 274 283 278 276 280 280 283 283 283 283 284 284 285 285 285 285 287 287 287 287 284 287 288 288 291 291 295 288 286 286 285 285 286 292 293 294 293 295 295 296 293 292 295 295 294 294 294 295 295 295 295 293 290 290 290 290 289 288 287 285 284 285
295 295 295 295 295 295 295 295 295 295 294 285 281 274 276 274 281 289 291 290 290 286 279 280 274 280 278 276 282 280 280 282 281 281 282 283 284 285 287 288 287 288 285 287 287 286 288 285 286 287 290 293 291 286 285 285 283 285 290 293 293 293 293 294 296 296 296 296 296 295 294 294 294 293 292 292 291 289 290 290 290 289 289 287 285 285 284
294 294 294 295 294 294 294 294 294 294 289 283 282 279 279 279 283 290 293 291 288 283 277 274 274 272 268 274 275 280 281 281 282 281 282 284 282 285 285 286 284 288 287 285 286 285 283 286 286 286 287 290 290 285 286 285 282 285 290 291 293 294 294 294 295 296 296 296 294 292 291 292 291 290 292 293 292 289 289 289 290 290 288 287 286 285 285
294 294 294 295 294 294 295 295 295 293 287 289 293 294 294 294 293 293 292 286 283 278 279 274 269 273 271 263 275 275 280 279 278 281 279 285 282 284 283 286 286 285 290 286 282 282 285 286 286 285 287 292 287 284 284 283 285 289 291 291 293 293 293 294 295 295 295 296 295 291 290 292 293 293 292 292 289 287 288 288 288 286 284 284 283 283 282
294 294 295 294 294 294 294 294 294 294 292 286 281 284 288 293 293 293 292 287 282 280 278 272 270 270 268 273 273 274 281 273 274 278 275 281 282 283 282 284 285 282 285 283 283 286 285 286 283 284 287 286 287 285 280 284 289 290 290 291 292 292 293 293 293 293 294 294 295 295 295 296 296 292 285 289 289 287 285 285 283 283 283 283 283 282 282
293 294 294 294 293 294 294 293 288 286 282 282 282 285 285 291 293 293 292 286 277 275 275 272 273 267 266 265 268 272 278 272 272 275 273 276 283 280 283 282 283 280 280 290 283 283 282 282 285 282 279 285 284 280 282 286 287 288 289 290 291 292 291 290 291 293 293 294 294 293 293 293 292 291 289 287 286 284 282 282 284 284 282 282 282 282 281
293 293 293 294 293 292 286 287 285 281 280 282 282 288 292 292 293 289 288 287 280 274 274 270 270 267 267 266 266 268 278 273 275 274 272 272 274 277 280 277 274 278 283 282 279 282 281 285 284 278 283 281 278 281 284 287 287 288 289 290 291 291 290 290 291 292 293 292 292 292 292 291 290 291 291 290 284 281 282 282 281 282 283 282 281 281 279
293 293 294 292 285 282 280 279 284 283 280 284 287 291 291 290 286 286 284 282 283 283 274 270 270 269 272 270 271 270 277 270 276 272 271 275 274 278 278 275 274 279 280 277 278 277 281 287 282 278 279 278 280 285 286 286 286 286 287 289 291 292 292 292 292 292 291 290 290 290 290 290 290 290 290 289 284 281 280 280 281 280 280 282 281 279 278
292 293 286 280 279 276 274 273 275 280 291 290 290 281 274 278 270 275 277 278 281 282 276 277 271 274 276 271 268 276 275 271 277 270 269 274 273 270 275 276 276 279 271 275 278 283 282 280 278 276 278 283 286 286 287 287 288 288 288 289 289 291 291 292 291 290 289 288 288 288 288 287 288 289 288 288 286 280 281 284 284 284 284 283 281 279 278
289 282 278 276 276 274 273 271 283 291 288 286 278 271 270 274 274 272 272 275 274 271 277 275 272 276 273 271 272 280 276 272 271 268 268 275 271 268 274 270 274 277 271 273 275 284 275 276 277 276 275 280 282 284 287 287 288 288 289 289 290 290 291 290 291 290 289 289 290 291 290 288 287 288 288 288 288 286 284 284 284 283 282 281 279 279 277
280 277 278 278 277 278 283 284 291 286 282 270 267 268 266 271 271 267 276 268 267 271 275 271 277 275 276 272 271 271 278 272 269 268 270 271 275 269 271 272 272 273 268 268 271 282 275 271 276 276 274 280 281 284 285 286 286 287 288 289 289 290 290 291 291 292 292 292 292 292 292 291 290 290 289 288 288 287 284 283 283 282 281 280 279 278 276
280 279 278 277 279 280 281 282 281 274 274 272 272 270 267 264 266 265 270 263 264 263 270 269 270 271 275 276 275 271 279 278 274 275 271 269 275 275 269 268 273 269 267 267 272 274 271 271 272 271 272 278 279 282 285 286 287 288 289 289 289 290 290 290 291 291 291 291 291 291 291 290 290 289 289 289 288 287 286 284 282 281 281 280 278 278 277
282 282 279 282 280 279 279 277 276 275 275 275 270 266 269 267 270 263 264 262 262 261 262 270 265 270 271 275 274 275 273 275 272 274 271 270 277 273 269 270 271 268 265 271 273 267 267 267 268 270 275 278 280 282 283 283 284 285 287 288 289 289 288 288 288 289 290 290 290 290 290 290 290 290 289 289 288 287 286 283 280 280 280 280 279 277 275
290 284 280 276 276 276 277 273 277 275 268 269 267 264 269 264 265 263 260 264 260 265 264 270 270 277 275 275 272 273 273 281 275 273 274 270 277 275 270 271 270 266 269 270 269 269 268 268 268 272 277 278 279 279 280 281 283 283 285 286 287 288 289 289 289 289 290 289 288 288 289 289 289 290 290 289 287 282 281 282 281 281 280 278 276 275 274
285 282 279 277 274 275 276 266 275 267 267 268 266 262 265 261 263 261 259 260 260 265 267 268 269 273 268 273 272 274 274 277 280 274 273 274 271 267 270 265 269 269 269 265 265 266 269 271 272 275 277 279 277 271 266 266 268 272 277 282 286 287 288 288 288 288 288 288 288 288 288 288 288 288 284 283 282 281 281 281 280 280 278 276 275 273 272
279 276 274 272 268 273 270 265 274 267 264 266 270 264 262 261 264 264 266 264 265 266 268 271 271 272 271 274 272 273 276 271 278 272 269 274 268 271 269 268 271 269 267 267 269 269 268 270 275 276 268 260 261 262 263 263 264 266 269 273 276 281 284 285 286 287 287 288 288 288 286 286 284 281 280 279 280 282 281 280 279 276 275 274 272 270 268
275 273 272 268 266 269 266 263 263 258 262 267 267 267 266 267 264 264 266 265 265 269 268 269 269 270 269 271 268 269 271 271 270 271 273 271 268 267 273 271 269 267 268 269 267 267 269 273 273 262 259 260 259 259 261 262 262 264 265 265 268 272 277 281 283 285 285 286 283 281 280 278 279 279 280 280 281 281 281 279 277 276 274 271 269 267 268
275 275 271 270 265 267 266 261 263 264 263 262 266 268 269 269 268 267 264 264 265 265 264 265 265 267 267 269 269 270 273 272 270 273 273 268 269 272 274 267 266 269 266 266 267 269 271 267 258 259 259 258 259 258 258 259 261 261 262 263 264 266 271 276 278 280 280 278 277 279 280 280 280 279 278 278 278 279 277 276 275 274 272 270 268 267 267
271 275 272 265 264 267 264 266 263 263 261 262 261 262 264 264 263 262 262 262 264 265 261 263 264 268 267 274 273 269 271 271 270 271 274 271 272 265 266 266 267 270 270 269 270 265 260 258 258 257 258 259 257 258 258 258 259 260 260 261 263 264 268 275 278 279 281 280 279 279 278 276 276 276 276 275 274 274 274 274 273 272 270 268 267 267 267
274 271 268 267 267 265 263 264 262 267 263 259 261 262 262 265 263 260 260 261 260 257 259 259 263 266 265 271 269 269 267 271 267 268 271 266 265 266 267 265 266 265 267 259 258 256 256 256 257 258 258 258 258 257 258 258 258 259 260 261 261 263 266 273 276 274 274 273 273 274 274 275 275 273 272 271 271 270 271 270 269 268 267 267 266 266 266
272 270 271 267 263 263 261 259 262 262 259 261 262 260 259 259 260 258 258 256 257 256 262 267 268 266 267 269 266 268 267 269 269 270 268 266 266 268 268 265 268 266 262 254 254 254 255 256 257 256 257 256 257 258 257 257 258 258 259 260 261 263 268 273 272 273 274 275 275 275 275 274 273 272 271 270 269 268 268 267 267 266 266 266 266 265 265
276 272 269 268 265 263 262 264 265 261 260 260 259 257 256 257 257 255 257 255 255 255 257 259 265 267 267 266 266 263 266 269 266 266 268 268 266 264 266 267 261 249 251 254 254 254 255 255 256 255 255 256 256 257 257 257 257 258 259 260 263 269 274 272 273 274 274 274 275 273 274 272 271 269 268 268 266 265 264 264 265 265 265 265 265 265 264
271 268 268 265 264 264 266 263 260 260 259 258 256 255 255 253 255 253 256 255 253 255 256 259 261 262 264 262 265 267 269 266 268 267 267 261 252 258 257 252 250 251 252 251 252 253 254 255 255 255 255 256 257 257 257 257 257 258 260 261 265 273 274 273 272 273 273 272 271 270 269 268 268 267 267 266 265 263 261 260 262 263 263 263 263 263 262
Wind_Speed
19 24 23 26 25 24 25 26 24 25 24 12 9 8 6 13 10 4 10 15 18 13 12 8 9 12 12 2 6 1 2 4 3 8 5 4 5 2 5 8 4 6 4 2 4 7 6 9 11 3 4 8 12 5 12 10 9 4 1 5 2 4 2 4 13 5 2 1 1 1 2 1 3 6 2 6 11 16 15 11 4 6 2 4 0 5 20
14 15 22 25 24 25 23 22 24 25 27 15 11 12 9 8 6 2 6 16 13 13 14 14 18 12 8 9 11 3 4 4 2 6 7 9 5 12 8 1 9 5 4 5 7 7 5 7 7 4 6 6 6 12 10 17 7 10 8 9 8 4 5 6 2 5 7 3 2 1 2 2 5 6 8 11 9 5 2 5 1 1 14 7 10 17 21
13 13 13 16 24 23 23 24 25 24 28 19 13 11 7 2 2 3 7 11 13 19 13 10 9 16 17 13 15 10 5 7 14 10 8 6 5 2 5 6 3 5 5 6 5 5 16 5 6 11 6 9 1 6 15 16 10 8 2 1 10 6 6 8 9 16 15 14 11 11 8 11 4 3 2 8 16 14 4 9 8 11 9 14 9 21 28
12 12 12 13 13 20 22 23 23 26 29 28 13 7 5 8 7 4 6 9 11 11 4 1 6 10 14 13 13 9 12 9 5 11 13 8 1 1 1 2 5 7 3 5 8 11 6 11 4 6 6 3 1 3 10 15 11 1 5 6 10 4 3 11 16 16 18 19 9 2 7 5 7 9 14 17 13 16 15 8 4 15 9 11 23 30 24
13 12 11 11 12 12 18 22 23 26 27 28 16 8 7 2 10 7 7 2 10 14 16 10 6 7 8 8 6 20 20 11 3 12 6 8 10 3 6 4 3 5 8 11 14 12 10 10 11 14 7 1 2 3 2 5 5 6 2 4 4 2 6 13 17 21 21 17 16 7 9 7 9 12 13 17 17 14 16 17 20 18 6 17 20 25 20
14 14 13 12 11 11 13 14 22 25 24 28 15 8 8 8 8 10 8 12 13 17 16 18 18 7 10 11 5 6 8 11 13 2 7 4 10 11 2 9 16 16 19 15 8 7 12 9 17 19 5 2 1 1 0 3 1 3 1 1 5 5 11 16 15 19 19 18 18 8 6 8 9 12 16 18 16 13 18 22 27 19 14 23 27 26 22
15 14 13 13 13 11 11 14 11 23 24 26 15 12 8 8 2 5 9 11 8 22 20 21 20 25 19 10 11 13 14 18 15 6 1 5 4 17 14 19 27 25 16 10 12 11 9 15 18 11 12 14 4 2 2 3 2 5 2 1 2 1 12 13 12 15 15 20 18 6 11 9 10 13 17 20 11 17 23 28 28 18 20 26 29 25 27
15 14 13 13 13 12 11 10 13 11 22 21 14 15 11 13 11 9 9 13 10 10 12 12 16 19 20 15 16 16 21 25 11 3 10 7 8 12 21 23 13 14 15 14 15 19 23 22 13 6 12 1 4 7 9 2 3 2 7 3 3 7 11 14 8 11 17 20 15 7 12 11 15 20 25 24 11 16 26 27 14 14 21 29 26 25 29
16 14 13 13 12 12 12 12 9 13 8 12 15 13 14 5 10 4 6 12 12 12 11 11 14 16 16 16 19 17 22 22 20 13 7 19 9 8 24 21 9 4 13 17 23 27 25 20 23 3 8 11 9 8 3 10 5 3 1 1 2 7 6 1 2 9 16 15 13 6 10 10 13 21 30 25 22 23 24 20 15 14 23 23 19 22 26
17 17 14 12 12 11 11 11 12 10 9 7 7 12 6 9 2 5 7 11 11 15 12 12 9 15 17 18 24 18 24 26 12 8 7 13 16 12 15 18 15 7 11 21 28 30 22 16 14 15 5 5 3 8 4 11 11 8 11 4 5 8 4 8 7 11 16 13 4 6 3 1 9 22 31 29 25 23 20 17 16 22 22 17 20 26 28
17 17 17 15 13 12 11 10 10 11 6 4 4 5 5 10 10 7 6 16 8 14 12 16 18 12 12 21 18 21 17 17 15 18 9 12 18 16 10 5 7 12 17 25 13 3 6 10 9 6 8 5 7 7 5 7 9 10 10 3 2 3 9 10 6 11 11 5 4 4 4 12 21 17 2 14 22 21 20 22 26 23 18 19 24 27 25
18 18 18 17 16 14 12 11 10 9 5 3 4 5 4 5 7 6 9 16 13 10 14 13 16 13 20 19 22 22 22 24 24 20 24 11 6 13 15 14 14 14 18 3 5 3 5 3 2 3 1 4 6 7 8 11 14 8 11 10 7 10 10 12 5 7 10 5 6 1 15 20 19 4 5 6 9 11 17 21 22 26 25 24 25 30 29
19 16 16 17 17 16 14 13 12 11 8 4 4 6 4 6 5 4 6 10 12 10 13 13 13 17 16 16 17 22 25 26 24 20 17 17 14 8 13 17 19 23 3 6 6 6 6 10 11 13 10 6 3 4 9 14 21 9 6 12 11 11 12 4 4 4 4 3 9 15 21 11 9 15 14 4 2 3 4 13 21 25 23 21 21 29 27
20 19 16 15 15 14 13 13 13 13 13 9 5 4 5 5 5 4 4 5 7 8 15 13 12 16 17 20 19 21 19 22 19 17 19 16 21 19 9 10 13 4 7 7 6 5 4 3 8 6 7 5 6 9 18 23 14 11 18 17 14 14 7 6 12 10 14 12 14 20 12 18 23 21 27 6 7 5 9 16 21 24 21 17 18 24 23
22 20 19 18 16 15 13 12 11 12 12 11 7 6 5 4 5 5 3 6 11 3 7 12 9 20 21 19 16 17 15 14 14 18 18 14 12 14 18 9 5 8 8 6 3 4 7 2 6 6 5 6 8 11 2 7 10 23 22 18 15 15 17 11 13 10 12 14 13 10 10 17 20 34 4 8 8 10 11 9 22 25 27 9 17 23 24
20 22 22 21 21 19 17 15 12 10 9 11 5 6 7 5 6 5 7 7 2 8 8 15 12 12 12 15 18 22 17 13 14 10 12 11 13 11 6 3 4 9 6 5 5 6 5 9 11 9 11 11 6 0 6 2 3 2 4 13 17 14 14 14 14 12 9 12 14 15 14 20 16 20 2 2 1 6 6 3 17 24 8 16 20 19 19
19 19 20 21 21 21 20 20 19 19 17 14 6 5 7 4 4 4 6 2 4 9 7 7 6 6 9 9 7 12 12 15 12 12 10 10 13 13 2 2 0 7 12 8 3 6 8 10 9 11 9 4 6 9 2 3 3 2 1 2 9 13 11 10 13 15 15 15 14 16 9 13 13 3 2 2 10 10 6 8 17 14 15 17 13 18 18
21 19 18 19 19 20 20 20 19 15 14 15 8 5 7 5 6 6 6 7 5 6 8 14 13 6 9 5 8 4 2 4 6 7 11 7 3 4 6 3 4 4 8 12 6 9 12 11 13 13 16 9 2 3 15 8 8 8 8 10 8 7 8 12 19 18 19 20 16 10 9 7 15 7 7 8 4 7 5 19 26 1 2 8 15 14 15
20 22 20 19 19 19 19 18 19 18 17 16 8 6 6 4 5 5 7 3 2 6 5 3 6 10 6 4 7 4 4 5 7 5 1 3 8 5 6 3 5 6 7 12 10 12 12 13 6 6 9 9 8 11 4 12 14 3 8 5 2 8 9 6 10 14 16 17 18 17 12 8 3 9 17 8 6 6 17 27 6 4 9 6 8 13 10
19 18 21 21 20 19 19 19 18 17 16 17 10 8 7 5 2 6 7 11 3 10 5 11 7 13 3 6 4 6 5 9 8 10 5 10 2 7 2 6 3 3 7 8 13 7 10 15 13 5 11 11 11 5 8 17 8 15 8 16 13 14 11 12 14 11 8 8 12 9 12 13 18 13 4 5 10 20 24 21 7 3 8 9 8 9 10
20 20 20 19 19 19 20 19 18 17 16 16 12 6 7 2 3 4 7 9 10 13 9 7 7 9 6 11 10 11 11 10 6 9 6 9 4 5 10 8 11 10 10 10 14 13 8 12 12 10 6 11 8 7 15 11 17 11 15 12 11 11 7 4 12 13 11 15 14 13 19 16 19 24 16 18 25 26 23 12 13 14 9 9 9 9 11
20 19 19 19 19 19 19 17 17 18 19 18 15 7 7 2 1 0 3 4 8 11 6 11 10 11 11 12 11 10 11 12 13 8 10 9 4 10 9 6 2 7 4 5 1 1 4 4 3 7 7 10 4 18 13 13 16 9 12 9 11 15 21 16 16 14 14 14 18 18 15 11 20 24 22 24 32 29 23 14 14 13 9 6 8 13 11
21 21 20 20 20 19 18 18 18 18 18 16 12 5 8 3 1 2 3 6 5 7 5 9 9 11 9 15 15 14 14 13 13 13 10 9 9 7 9 9 11 2 3 4 12 12 12 12 16 9 13 12 14 14 15 17 13 10 13 18 23 20 27 19 12 8 12 14 5 3 5 7 15 17 19 22 18 15 16 16 14 11 10 8 11 13 9
22 21 21 21 20 20 19 20 18 17 18 17 12 6 6 5 3 1 1 4 3 8 7 9 7 10 10 16 12 12 13 13 14 15 14 12 15 10 7 6 3 4 3 4 3 6 4 6 6 6 15 7 8 14 13 13 17 12 12 9 9 16 12 13 15 7 9 15 14 25 19 9 13 21 24 19 12 14 11 12 15 15 12 9 9 9 10
21 22 22 21 21 20 21 19 18 18 18 18 15 8 5 2 2 3 2 5 3 3 9 6 11 5 7 4 9 10 7 10 12 14 14 13 15 14 16 9 6 11 13 12 4 8 4 10 6 7 14 6 11 15 11 15 12 12 18 13 6 14 10 13 16 11 17 19 19 21 19 20 16 15 15 18 21 21 9 10 10 13 11 8 11 7 7
21 20 19 22 22 20 20 20 19 19 18 18 14 7 6 6 2 5 4 2 3 3 6 9 11 5 6 8 10 11 6 2 4 6 7 11 12 16 16 13 16 10 11 9 11 13 9 11 8 8 10 7 12 13 11 15 17 12 21 18 17 5 15 13 12 17 19 16 16 13 8 1 8 17 19 20 20 17 16 17 15 11 9 9 7 10 13
19 22 22 21 21 19 19 20 21 20 19 17 11 6 6 5 7 7 5 4 4 6 6 10 8 5 4 3 3 5 7 12 10 10 12 12 13 13 13 15 16 13 15 14 12 14 10 11 10 15 10 8 5 12 9 8 13 11 14 7 7 7 14 5 8 15 15 17 19 18 17 17 18 23 25 24 23 21 17 14 14 16 16 14 13 13 10
21 20 21 22 21 19 20 22 21 19 19 18 12 6 5 5 6 8 8 7 7 10 8 10 8 13 11 10 9 17 13 11 13 14 15 15 14 12 12 12 13 14 12 13 15 13 12 14 17 8 7 2 5 12 10 10 11 12 16 9 11 16 17 13 17 16 20 20 24 21 22 23 20 22 22 20 19 18 19 20 22 22 21 20 16 13 9
22 21 21 22 22 21 20 20 20 19 18 15 2 2 3 5 6 8 9 9 8 6 7 9 9 8 9 11 3 5 8 11 11 12 13 13 15 15 15 15 14 12 13 14 15 13 14 13 7 9 7 4 6 16 7 18 15 16 16 13 16 19 20 25 26 23 28 23 22 21 20 21 20 24 26 20 13 16 20 21 22 22 19 16 16 18 19
22 21 22 21 20 21 21 20 20 18 17 5 5 0 1 4 6 9 11 11 10 5 6 5 8 5 4 2 2 6 5 6 8 10 12 13 15 15 16 16 17 14 14 13 9 16 12 11 11 11 9 8 10 7 13 16 16 16 12 14 23 17 22 23 23 25 25 18 20 20 20 23 21 23 21 17 11 13 16 18 20 20 17 16 18 17 18
21 21 21 21 22 20 17 18 19 19 15 3 2 2 1 5 4 6 9 6 7 6 3 5 9 5 10 3 9 13 14 13 12 13 14 14 15 16 15 13 15 11 13 10 12 17 10 18 12 6 3 14 13 13 19 16 20 15 11 16 19 20 23 23 23 24 26 24 21 19 16 19 16 15 15 12 13 11 14 13 17 19 20 17 18 19 16
21 20 19 20 21 20 20 20 20 18 6 4 4 6 4 5 3 5 7 5 5 3 1 5 6 3 3 3 3 4 7 9 7 4 4 4 9 8 13 12 13 11 14 13 13 10 16 15 14 18 15 10 10 12 11 16 22 18 7 16 18 21 20 22 23 25 24 23 21 21 21 19 15 17 19 15 15 9 15 18 19 17 17 16 16 17 17
20 20 21 20 20 20 20 19 19 13 4 7 13 17 17 17 9 7 7 3 1 2 3 4 5 4 4 6 7 0 1 6 5 4 11 5 10 6 13 9 11 11 11 14 13 13 10 12 14 17 17 11 12 11 15 22 23 15 19 21 18 18 21 22 23 23 24 24 21 24 24 24 25 21 21 17 10 12 16 17 13 7 7 9 12 12 9
20 21 21 21 21 21 19 18 18 15 10 5 5 7 10 14 15 20 12 2 3 3 1 3 2 4 6 3 10 4 3 3 5 4 8 4 4 5 10 7 8 10 8 13 12 12 12 11 16 15 8 16 12 15 22 19 9 18 22 23 24 24 21 19 19 22 22 21 20 23 26 26 24 14 4 10 16 12 8 6 7 10 14 15 15 16 17
21 19 19 19 21 20 19 15 5 4 5 4 6 7 2 6 13 14 13 5 4 2 1 2 2 4 4 2 6 10 4 1 8 8 10 8 8 9 5 11 7 13 9 8 12 12 12 13 9 13 21 11 14 24 16 11 22 26 21 22 22 21 21 21 22 21 21 19 20 20 20 20 21 20 17 13 11 9 9 11 14 15 13 14 16 15 14
19 22 20 18 15 5 2 2 2 2 3 6 6 2 5 10 11 6 6 7 6 3 4 3 3 6 4 10 10 5 2 6 6 4 2 3 4 4 7 6 13 12 6 9 12 6 13 4 7 20 11 15 23 14 15 19 25 22 19 21 20 19 21 24 25 21 20 19 20 20 20 19 21 24 21 18 10 9 12 11 11 13 17 16 17 15 14
21 19 18 8 2 3 1 3 2 5 6 4 2 4 6 5 1 1 1 2 4 1 4 3 6 8 8 12 3 3 4 14 4 6 1 4 6 2 5 4 13 7 9 9 9 13 13 7 13 15 12 19 18 12 20 20 21 22 21 22 18 18 19 20 20 20 21 21 21 19 19 21 21 18 18 16 13 12 12 15 17 18 18 21 18 15 16
18 11 2 1 2 1 2 2 3 5 5 4 3 2 5 3 1 0 1 4 4 5 3 6 11 8 5 6 11 7 5 11 6 7 2 5 5 4 3 6 6 5 14 9 10 8 9 6 10 14 15 14 18 19 20 18 20 19 19 17 17 18 19 19 18 19 20 22 22 21 18 18 19 17 18 20 16 16 18 20 20 19 20 18 13 16 15
8 1 3 0 2 3 4 4 3 6 7 3 3 2 3 0 2 1 3 2 0 2 4 8 11 11 11 8 11 7 10 9 7 2 7 6 5 7 4 11 4 5 9 5 8 5 14 10 9 12 16 11 16 17 16 21 23 24 26 25 25 23 21 22 22 24 25 24 24 23 22 22 23 23 20 20 19 18 19 19 17 14 14 14 17 18 19
5 1 3 3 6 4 1 2 4 4 2 1 2 3 1 1 3 4 2 1 3 4 2 7 8 10 11 14 14 13 4 5 9 11 12 9 2 7 3 7 0 6 14 8 5 1 8 9 4 10 12 8 13 12 14 15 17 18 19 21 24 26 26 25 24 22 24 26 25 25 23 23 23 22 21 20 20 19 16 15 16 16 15 16 19 20 22
1 2 2 5 4 2 2 2 2 2 2 1 1 1 1 2 3 2 0 3 3 3 3 4 2 4 6 9 9 12 10 4 5 5 4 8 4 5 4 7 4 7 7 7 4 4 3 6 8 13 15 14 18 17 15 14 14 17 17 19 20 21 23 25 26 25 24 22 20 19 19 19 19 20 20 20 18 18 19 18 17 17 19 17 20 21 16
7 7 3 2 2 2 2 1 2 2 1 1 2 3 3 3 0 2 1 3 6 2 3 3 3 6 9 10 9 4 5 2 2 3 3 6 4 6 7 4 2 7 8 4 4 1 2 9 10 13 10 13 16 16 15 16 16 17 17 16 17 17 16 17 18 19 19 20 19 18 18 19 20 18 17 17 16 17 19 17 15 13 16 16 14 11 13
9 5 4 3 1 0 1 2 3 2 3 3 3 3 3 2 4 4 4 2 2 2 5 0 2 1 2 3 4 1 4 1 2 3 3 4 2 2 3 6 4 8 7 2 3 4 9 11 12 15 14 16 17 18 17 17 18 19 21 20 20 19 19 21 23 25 25 20 16 15 16 16 19 21 19 17 15 10 6 9 15 15 12 13 14 15 16
5 3 2 1 2 3 3 5 2 3 2 2 4 5 5 3 4 2 1 4 1 1 3 2 4 8 5 2 2 4 2 2 5 2 3 2 1 4 3 5 7 4 1 1 2 11 11 10 12 15 17 13 10 16 18 19 20 21 22 22 22 22 23 22 18 16 17 16 15 17 19 20 20 16 9 10 14 18 16 14 12 13 14 15 14 14 15
3 0 1 2 2 2 3 3 2 4 6 7 5 4 5 10 10 7 9 3 2 2 2 2 1 1 5 5 1 3 3 4 2 2 5 3 4 5 5 6 4 0 2 9 7 8 6 12 17 11 10 14 13 15 18 17 17 18 20 24 25 23 21 20 20 18 17 17 19 19 17 15 10 5 2 4 5 9 14 15 13 15 15 15 15 15 15
3 3 3 2 3 1 2 2 1 1 3 3 6 9 8 7 4 3 1 2 2 6 6 6 6 4 6 3 1 5 3 3 5 4 3 2 6 8 7 2 0 6 8 7 10 13 15 20 7 9 9 13 16 17 17 17 16 17 17 20 25 27 26 24 21 23 24 18 10 6 7 4 6 8 10 11 11 12 12 14 16 18 16 17 18 18 17
1 0 1 1 1 2 2 2 4 5 4 3 5 6 6 2 2 5 4 4 4 3 4 3 2 3 4 5 2 2 4 2 5 5 4 7 8 5 1 1 6 5 7 11 11 12 11 5 6 10 13 15 18 20 17 18 18 18 19 19 21 26 28 24 20 18 14 7 5 7 8 9 8 6 7 8 6 7 10 13 14 16 19 19 17 17 17
4 1 2 2 4 3 6 7 3 2 1 1 1 2 2 0 2 4 5 5 4 3 4 5 6 4 3 4 5 9 8 4 7 9 5 4 3 2 3 3 5 5 6 9 13 3 4 9 13 15 14 16 15 18 19 20 20 23 22 21 21 23 26 23 17 15 13 10 10 10 5 5 6 8 9 10 10 8 9 11 13 13 14 15 16 18 18
1 2 3 3 2 3 3 1 3 7 2 5 5 7 6 7 5 3 4 4 4 2 2 1 2 1 5 2 4 5 7 4 7 6 3 1 4 5 5 7 6 9 3 3 4 6 9 13 14 17 17 18 16 17 17 18 17 20 21 21 21 22 25 25 13 5 2 2 3 5 6 7 9 10 11 12 13 10 10 12 13 13 15 17 17 16 16
2 1 0 1 3 3 0 1 3 4 3 4 5 5 6 5 4 3 5 5 5 5 4 6 5 4 5 2 5 5 6 4 4 4 7 8 6 5 7 11 9 9 4 5 8 11 13 13 14 17 17 19 19 19 19 22 20 22 20 21 20 20 22 18 6 2 4 6 8 9 9 10 9 10 12 13 12 12 12 12 13 15 14 14 16 17 16
1 2 2 2 5 4 3 4 6 4 1 4 4 4 5 3 3 3 6 5 6 3 2 1 2 2 3 2 3 5 3 1 1 4 7 8 2 2 5 11 3 2 10 11 11 12 13 13 13 15 18 21 19 20 19 21 21 22 22 21 21 21 14 4 1 4 5 6 9 11 11 10 10 12 12 14 15 15 15 13 11 12 13 11 11 14 15
2 3 2 3 5 5 3 7 7 7 6 5 5 4 4 2 4 4 6 5 4 1 1 1 0 2 3 6 3 3 4 1 8 4 10 2 3 3 3 3 8 10 11 13 14 13 13 12 13 17 17 17 20 20 20 21 21 22 20 20 22 16 5 3 2 4 6 8 9 12 12 14 15 14 14 15 16 16 18 16 11 11 12 11 11 11 12
Wind_Direction
273 252 241 235 231 229 221 213 202 191 170 162 187 155 202 199 218 36 164 167 161 169 215 219 205 219 230 258 285 221 320 207 208 196 197 226 177 240 233 208 196 239 192 176 193 183 237 175 213 183 232 245 217 205 156 131 160 99 47 46 267 81 127 238 258 311 351 315 329 58 66 126 305 255 148 136 197 198 210 224 162 173 223 163 188 225 259
333 302 264 247 238 230 228 213 206 192 177 182 157 195 204 209 175 145 199 183 178 176 197 208 214 230 249 223 244 170 231 179 224 212 202 194 172 211 218 74 206 235 162 172 215 176 245 225 196 260 230 263 233 146 160 155 178 165 212 163 189 147 240 179 279 325 315 337 359 48 334 72 219 221 200 206 228 219 196 74 113 240 227 160 127 245 254
326 330 328 285 252 237 225 216 212 195 188 181 166 192 185 144 96 132 182 200 193 199 204 213 198 218 222 217 233 235 252 225 224 208 219 216 213 198 247 214 132 218 175 208 224 197 206 268 215 220 213 237 37 191 162 192 183 220 244 165 162 178 172 153 211 227 240 248 239 232 220 209 217 248 236 212 209 210 105 235 197 225 229 148 204 246 249
319 324 329 336 305 254 230 221 208 200 195 185 185 183 149 182 201 146 190 201 213 240 266 200 206 209 215 232 238 237 247 266 226 204 241 195 310 255 208 333 179 210 163 225 224 234 233 208 230 181 239 239 317 202 207 189 199 239 97 150 147 192 189 201 213 217 230 238 248 57 111 80 176 227 206 222 210 216 216 242 188 218 220 178 227 239 265
319 322 323 326 340 317 259 232 213 208 203 188 187 198 191 121 213 155 198 160 241 222 217 211 205 226 167 214 171 223 222 235 327 181 237 189 202 238 220 207 164 221 205 222 235 224 232 233 253 243 222 271 227 343 171 299 314 356 22 184 112 85 219 224 227 231 239 245 251 176 158 176 215 214 227 225 211 200 205 215 229 221 205 246 240 251 250
325 325 326 326 328 335 334 276 226 216 206 192 193 208 168 210 212 199 176 176 193 208 226 208 213 218 175 225 178 240 221 216 232 161 212 145 182 196 272 216 221 216 204 208 226 215 233 215 236 240 235 216 244 348 59 199 134 113 318 268 190 189 230 234 228 241 246 248 251 154 201 223 228 209 227 229 209 200 214 229 236 220 208 237 248 246 250
322 326 324 324 322 327 331 348 292 226 210 192 200 204 212 223 46 224 158 221 175 206 206 199 197 214 204 235 219 242 234 235 218 182 114 189 225 195 227 220 217 220 218 200 227 216 233 238 233 227 225 218 167 213 305 251 185 161 227 243 210 155 243 244 235 251 247 251 247 186 200 236 252 251 242 239 184 206 221 233 233 218 232 241 249 256 258
321 325 325 323 325 321 330 332 347 286 219 199 212 214 182 204 189 214 201 218 213 210 215 210 203 217 203 217 215 227 231 242 226 159 178 215 223 209 225 235 227 214 220 217 229 227 224 229 242 210 220 223 161 231 211 192 352 199 204 169 280 181 243 235 246 260 254 254 250 212 215 231 250 255 258 250 212 213 230 239 238 231 244 249 254 261 263
320 322 326 326 330 337 334 339 335 350 267 211 216 219 221 217 220 165 186 211 214 221 203 201 201 211 209 219 225 230 232 242 229 223 187 217 208 181 222 233 242 161 213 221 232 235 236 232 242 207 156 211 199 194 243 184 147 176 209 154 265 177 274 58 74 238 258 253 251 187 208 227 239 253 256 255 240 233 237 241 226 218 237 246 257 258 256
318 317 318 325 330 336 341 344 347 346 337 264 226 234 226 248 17 187 211 235 183 213 209 212 198 220 208 208 216 217 224 233 228 269 226 234 223 209 208 223 222 219 206 224 228 234 239 248 253 253 229 249 287 223 200 167 172 180 203 167 159 196 175 218 215 238 249 267 90 153 129 101 269 248 242 243 247 240 247 252 236 222 227 239 245 246 247
307 313 311 313 317 323 331 336 342 354 355 301 285 272 226 238 229 219 208 240 188 214 206 219 207 212 205 212 225 226 236 232 217 217 232 205 225 219 207 189 200 227 223 230 235 250 258 250 260 274 257 231 239 251 234 228 211 174 166 165 222 190 213 225 187 236 247 250 122 122 149 227 236 250 249 226 240 242 238 241 243 240 216 227 234 252 259
294 300 308 308 308 310 316 322 325 333 359 308 322 292 293 336 315 235 232 238 236 207 214 218 208 213 219 210 212 220 221 225 227 209 230 224 197 196 191 206 205 238 231 246 86 124 78 63 53 45 152 211 229 241 231 224 234 212 170 175 178 198 204 228 192 245 243 126 137 193 216 235 246 18 249 217 222 226 228 240 244 245 239 235 244 255 256
278 288 293 302 305 305 307 310 314 321 330 339 324 306 324 340 298 293 278 257 244 210 228 226 224 232 228 226 219 222 224 227 230 228 229 231 232 193 196 199 205 229 128 118 137 103 228 245 248 251 258 258 231 222 237 238 240 207 222 208 193 206 202 187 229 202 34 119 201 234 238 252 332 293 269 234 242 226 249 261 251 251 246 235 235 248 255
292 282 286 291 294 303 311 313 322 322 323 330 302 290 308 311 297 276 250 272 260 223 232 245 221 236 232 233 228 232 231 237 237 232 234 227 235 228 216 214 219 170 127 120 125 159 264 145 248 219 230 218 245 244 233 234 228 204 211 220 220 217 203 185 240 195 232 222 225 241 297 309 283 284 264 184 192 163 186 255 264 261 244 221 235 250 253
286 292 287 282 285 287 290 300 307 318 326 328 315 309 291 293 288 285 304 269 269 274 243 236 200 227 227 234 229 243 238 234 229 234 231 235 241 230 230 213 116 150 130 143 159 162 204 137 230 228 221 186 219 235 190 229 222 221 218 216 209 209 218 205 228 223 212 241 249 259 245 249 256 247 301 128 182 187 196 199 268 265 265 170 215 238 247
285 280 282 284 282 278 280 282 287 294 307 317 304 295 280 284 284 268 267 270 304 265 240 228 240 246 246 239 227 232 234 232 231 238 236 226 234 249 262 128 169 135 168 209 166 187 155 208 224 221 227 220 227 45 229 162 309 324 273 230 214 216 225 226 218 238 226 231 237 237 236 245 242 272 157 216 87 148 87 186 258 262 260 154 209 227 239
283 288 284 280 282 287 287 285 287 289 287 291 283 290 283 294 283 305 307 291 250 243 327 353 353 283 258 261 263 249 229 237 223 232 239 229 223 222 239 41 360 177 189 208 177 177 202 215 218 226 247 179 195 213 83 165 210 252 32 103 207 207 212 222 235 234 227 236 236 240 219 254 256 265 107 208 128 118 109 275 265 271 133 198 179 214 225
283 277 279 282 282 281 282 283 285 294 307 309 295 266 275 283 286 296 280 261 241 260 222 239 235 213 225 201 243 257 256 246 226 235 243 243 209 180 199 135 162 273 179 208 158 209 219 214 216 218 231 199 202 113 223 183 213 167 195 161 160 186 213 205 221 221 228 225 244 259 266 252 254 215 140 147 125 100 224 251 262 274 242 160 192 204 221
282 283 278 276 281 280 279 280 281 284 284 285 291 278 262 256 257 255 284 277 265 258 307 337 225 250 268 280 257 252 255 257 228 228 169 227 227 170 146 216 176 203 174 208 189 215 215 228 217 226 234 212 174 218 172 215 218 179 117 101 180 204 186 229 209 227 224 226 228 235 249 248 187 136 155 178 98 212 231 242 226 248 261 187 180 205 211
276 279 284 284 278 276 277 278 282 281 279 280 281 268 275 279 267 257 270 283 273 277 258 272 274 272 260 245 252 239 248 249 233 239 209 234 58 111 65 210 237 102 201 187 221 200 215 226 213 207 222 224 220 169 226 228 197 189 187 199 197 184 177 194 195 214 228 227 241 241 248 238 182 141 88 202 188 234 237 244 235 172 198 193 205 204 206
278 278 275 273 279 283 284 283 279 275 274 277 279 283 284 195 227 239 230 238 262 283 273 227 230 267 278 265 253 242 240 243 231 242 243 250 224 164 214 211 184 175 189 177 213 204 202 231 211 224 207 209 210 195 223 205 231 209 193 200 215 155 207 197 217 185 191 201 203 213 214 231 144 156 186 200 210 232 238 230 248 235 197 195 201 214 200
275 272 271 273 274 277 277 277 278 284 290 291 288 272 269 269 134 360 275 291 281 264 274 298 295 276 272 266 271 270 261 260 260 281 291 285 223 229 270 311 203 186 202 189 257 319 242 227 214 225 210 220 174 227 200 214 229 190 212 184 242 163 217 195 214 188 199 204 214 217 222 196 179 190 207 208 213 224 237 227 231 237 228 189 192 228 206
272 272 272 272 272 270 269 270 274 275 271 271 272 267 271 287 146 243 300 296 257 261 276 272 264 254 250 260 256 251 250 243 253 255 247 265 268 252 254 254 260 234 271 231 221 222 222 212 230 217 238 218 206 228 215 220 229 174 205 197 223 198 214 219 239 224 228 252 258 320 234 186 199 218 223 232 233 232 240 238 240 235 230 177 205 229 208
272 272 273 272 269 268 271 273 273 272 271 271 269 262 266 253 201 186 313 250 252 284 269 231 242 254 231 252 252 238 236 240 232 236 233 218 249 263 258 246 287 285 236 236 250 239 263 258 250 218 246 208 197 228 215 230 229 211 227 220 236 234 218 219 232 195 194 239 214 240 232 218 195 215 230 241 247 240 227 228 231 239 233 216 223 211 200
269 274 275 271 268 269 270 273 272 271 272 271 270 261 251 269 190 170 236 282 270 286 283 298 248 276 301 326 316 301 244 230 229 234 233 227 229 240 250 244 228 249 261 267 308 276 241 259 252 223 242 204 197 239 210 236 244 175 237 217 185 245 192 228 222 215 212 235 226 230 233 233 211 217 236 242 241 239 219 223 229 231 233 209 211 191 203
271 272 272 276 276 276 274 272 277 275 271 268 263 248 232 240 183 126 171 235 252 245 268 270 274 254 235 258 248 243 264 313 312 279 257 253 245 241 252 257 257 244 256 256 262 254 248 248 243 249 250 258 197 238 222 210 239 198 221 220 206 212 149 222 163 219 233 250 261 266 252 294 249 234 230 236 240 235 226 225 229 236 235 224 210 193 203
268 270 271 272 270 268 270 272 270 272 272 273 271 243 223 217 182 167 166 198 276 300 233 245 271 277 93 231 272 304 298 289 282 282 283 270 261 259 259 256 254 255 252 255 239 251 244 244 235 245 223 249 215 235 238 230 233 226 240 212 104 111 208 179 167 231 234 225 230 227 246 244 239 241 235 232 234 236 231 228 229 228 228 220 213 217 214
264 266 266 268 271 268 267 267 269 276 279 278 279 274 216 210 194 190 194 181 178 229 269 284 288 281 281 277 265 264 269 264 262 265 261 263 267 262 256 255 259 259 253 247 248 236 240 237 237 236 241 187 226 245 224 254 252 242 238 207 182 203 210 187 219 212 233 224 230 227 231 240 235 244 242 231 228 228 224 221 226 225 222 217 210 212 203
266 267 270 268 267 272 271 271 272 273 277 279 264 290 299 231 219 198 200 196 193 232 249 259 268 286 281 267 272 329 293 269 268 266 271 274 269 266 263 261 257 255 260 256 259 259 252 253 255 239 230 162 208 253 209 238 226 231 227 195 206 216 211 215 224 228 239 228 229 223 227 235 236 239 247 245 221 213 222 222 226 227 219 208 207 208 206
260 264 266 269 270 265 264 267 271 272 273 284 82 249 324 285 208 206 202 197 193 201 228 259 260 252 246 252 261 214 250 258 243 246 255 260 262 261 256 258 258 252 251 253 259 263 255 263 246 244 238 154 233 256 243 248 249 240 224 210 219 215 226 229 228 229 243 230 236 233 231 237 238 244 246 249 229 200 217 221 222 225 218 204 206 211 213
262 258 257 261 263 264 270 273 273 273 272 233 104 53 270 279 264 192 194 187 195 190 225 238 256 296 284 236 254 257 251 253 258 256 249 245 247 252 253 251 251 243 254 244 243 250 266 257 263 250 225 218 225 244 246 248 252 247 207 209 219 219 224 227 232 235 241 246 244 242 237 241 246 258 258 251 244 205 215 221 223 219 214 203 205 208 208
262 265 270 268 267 269 268 263 262 264 252 136 180 174 179 194 231 118 139 133 145 117 219 279 278 261 264 270 230 205 230 228 234 238 243 232 257 240 255 236 251 232 242 249 245 262 247 256 255 252 248 226 231 258 245 244 247 245 202 218 219 225 224 228 232 236 240 241 247 256 253 252 237 231 248 235 241 202 207 218 219 217 208 205 206 206 204
263 263 260 257 260 263 262 267 271 272 231 243 233 242 248 248 206 164 145 116 42 172 225 233 221 257 267 242 273 247 287 266 248 230 258 203 255 215 251 230 243 246 232 251 237 243 237 240 247 250 242 223 237 249 251 246 249 250 241 238 233 229 229 228 231 233 235 236 230 238 243 243 246 236 238 242 224 200 211 216 215 187 171 189 198 198 192
260 259 260 262 264 265 268 266 267 276 287 281 281 244 239 237 245 245 242 192 226 234 166 166 267 257 260 317 283 257 234 252 262 216 271 210 243 197 255 261 223 246 192 227 241 246 243 242 244 249 256 235 234 251 249 244 254 251 248 250 248 247 243 239 235 237 237 238 236 237 243 246 251 256 228 218 227 225 212 186 152 170 191 194 197 197 193
267 268 267 267 262 264 269 275 276 194 211 226 239 258 262 213 210 217 224 193 263 267 202 290 210 266 293 314 252 274 241 171 259 246 248 260 248 255 258 256 245 245 235 219 248 233 247 237 243 249 241 241 245 242 244 252 244 244 243 243 242 245 249 248 243 237 240 237 238 239 242 247 252 251 239 233 224 206 183 194 190 182 187 199 203 199 183
263 262 266 269 284 301 348 301 195 158 192 220 234 140 191 217 226 224 183 191 177 190 224 231 215 233 214 268 272 276 185 234 220 269 197 243 269 213 229 247 264 245 265 244 259 249 248 222 226 247 234 236 238 241 256 243 249 248 246 250 247 243 244 242 249 246 244 241 239 241 240 241 241 244 245 237 208 200 193 191 198 197 198 201 204 196 185
262 265 267 269 37 65 242 211 205 185 210 188 203 249 271 255 307 154 124 198 282 170 203 197 234 225 220 249 256 270 317 274 306 286 227 255 246 257 251 232 246 265 250 243 236 246 252 231 252 259 249 245 255 250 253 256 255 256 251 250 248 247 250 251 250 252 250 246 244 243 240 240 239 239 242 237 214 195 189 198 197 197 204 211 205 183 181
270 280 314 103 90 123 261 261 212 231 189 174 189 39 348 32 108 283 241 235 218 195 225 207 240 240 236 235 251 257 280 265 279 275 290 256 280 253 227 236 251 272 261 254 247 227 261 235 252 253 253 250 263 259 259 264 266 268 266 264 256 247 244 245 244 244 245 248 247 244 245 244 244 238 233 233 216 201 203 209 209 208 209 206 181 169 162
287 49 59 49 124 216 201 246 226 150 106 51 58 68 325 8 77 318 236 211 4 232 222 207 238 226 234 238 255 246 232 270 277 262 269 245 265 276 246 271 229 245 258 261 256 162 262 238 251 250 255 248 250 250 247 253 255 255 255 255 256 256 254 251 243 240 240 239 239 235 229 231 232 235 228 230 226 217 214 214 215 207 203 188 177 177 174
97 122 178 162 215 222 144 115 144 141 87 69 327 101 228 261 133 243 162 75 274 247 197 233 217 226 215 226 236 258 205 183 232 249 249 266 197 268 262 265 231 261 269 254 272 61 270 280 272 275 266 260 263 268 272 274 276 274 271 262 257 254 252 250 249 244 245 246 243 244 239 235 230 232 230 228 227 225 220 217 212 204 194 188 179 173 176
188 132 170 216 210 147 172 160 39 50 81 93 47 16 94 313 221 218 186 219 220 243 200 200 174 216 232 229 230 248 254 221 235 239 249 253 237 250 242 250 265 269 268 269 273 260 263 273 264 262 272 275 279 283 279 266 257 259 262 266 267 264 256 251 248 247 247 248 247 248 246 244 239 236 237 235 228 225 221 213 206 199 191 183 178 184 178
186 182 187 119 90 100 87 53 114 126 187 171 137 213 167 229 341 358 178 177 227 216 298 178 232 215 236 206 219 204 271 188 178 208 223 252 229 225 242 243 226 238 253 232 255 202 241 257 259 262 267 265 263 263 263 269 272 274 271 269 268 267 276 282 284 281 269 258 252 246 244 242 241 238 236 234 227 220 216 207 195 190 189 183 167 141 145
198 103 83 80 79 90 107 119 197 129 188 173 131 234 181 183 212 182 254 246 275 132 255 157 228 283 322 27 334 235 233 335 322 266 246 255 256 233 237 240 246 245 240 299 245 261 250 256 258 257 257 258 256 260 268 280 283 281 277 273 269 268 258 254 253 252 252 252 254 257 259 257 253 246 238 232 226 223 203 189 189 181 159 147 156 159 155
117 144 161 161 141 238 132 214 150 75 211 197 168 198 184 207 259 144 160 253 234 286 259 243 286 51 313 316 248 292 298 257 217 278 263 266 249 239 238 224 230 244 98 333 239 243 250 247 249 259 257 272 329 354 345 337 334 332 324 317 303 286 274 267 263 259 259 256 248 244 244 245 246 245 219 190 179 178 178 178 171 164 158 148 146 149 147
123 200 95 95 209 232 96 219 109 152 198 201 185 209 181 205 216 182 204 248 98 223 336 32 327 331 285 299 232 249 237 279 310 269 265 253 257 245 245 256 252 320 231 240 248 260 253 260 252 260 3 349 329 332 332 326 330 326 318 312 307 302 293 283 273 266 255 249 248 245 246 248 249 237 193 172 179 175 164 163 150 140 149 149 144 139 147
160 177 145 180 229 214 146 232 85 343 289 181 206 201 201 214 164 197 278 41 34 6 17 357 347 346 301 269 207 270 282 265 275 230 254 254 257 255 246 253 59 248 249 245 246 247 249 253 305 13 337 331 324 320 323 317 316 319 322 316 313 310 305 299 290 279 274 270 258 235 227 171 165 168 182 178 169 163 162 155 156 153 144 142 150 147 147
129 113 103 103 133 263 103 186 228 209 181 206 221 184 190 193 103 86 46 11 32 359 343 289 252 223 259 289 301 273 230 226 252 255 255 255 250 262 277 95 241 231 249 251 249 244 256 358 358 326 336 322 325 323 314 315 315 313 309 305 307 308 304 298 289 278 268 258 227 211 206 199 194 176 140 122 122 127 132 139 147 150 152 150 142 135 137
164 165 117 180 212 179 189 227 202 322 345 81 319 69 33 30 67 45 16 3 340 11 8 352 345 349 296 235 200 254 266 246 257 255 234 244 272 318 272 246 246 247 236 248 254 354 355 344 335 329 321 326 312 312 318 316 313 311 305 302 300 303 304 297 287 280 274 248 226 218 191 157 135 131 128 119 105 102 116 123 124 124 120 122 132 137 138
158 150 188 212 203 177 225 234 121 221 276 45 64 58 26 42 74 44 359 358 11 344 294 145 214 193 259 244 237 248 250 221 247 258 263 208 215 238 248 255 259 260 253 49 327 12 331 331 315 317 317 318 320 314 308 310 301 299 301 297 294 293 295 289 276 277 325 18 41 72 84 99 106 107 107 110 110 106 109 112 112 113 124 130 132 133 133
139 270 270 177 345 313 228 347 110 228 332 18 38 38 24 22 45 56 17 347 340 310 262 213 199 201 255 258 267 244 256 238 249 255 245 245 241 246 251 258 249 269 293 30 320 319 317 314 319 312 319 319 314 316 310 311 312 304 297 293 288 285 284 268 243 178 143 135 129 129 125 120 118 122 122 117 109 105 99 102 112 119 123 128 132 133 132
171 168 207 119 177 224 134 221 210 204 30 33 44 30 13 12 22 341 358 333 314 313 44 96 288 290 282 249 262 262 243 160 325 242 239 253 313 299 248 260 278 69 285 303 301 302 308 309 314 313 315 317 313 309 311 308 305 304 298 292 288 287 282 274 193 127 111 117 118 111 103 100 99 102 101 103 104 99 89 79 90 104 110 109 117 125 125
149 187 186 57 28 19 37 94 59 68 65 72 75 31 21 355 356 322 325 317 290 98 294 280 233 235 231 237 246 280 318 304 253 265 266 266 63 241 247 293 313 313 315 311 309 309 307 304 306 307 309 306 311 312 308 308 306 303 303 303 305 305 319 353 20 71 91 82 83 97 96 102 106 105 107 107 108 105 100 84 85 93 94 96 92 87 94